Starlink 2322

operational
NORAD ID: 47791 Int'l Des: 2021-018 Owner: SPXS Country: US Constellation: starlink
LEOCIRCULARSTARLINK_TYPE

Starlink 2322について

説明を読み込み中...

リアルタイム位置

3D地球を読み込み中...

次回通過

高度履歴

Altitude vs Time

uPlot chart will show altitude changes over time

軌道要素

1 47791U 21018E 25302.78729218 .00001771 00000-0 13773-3 0 9996
2 47791 53.0541 119.2621 0001527 96.1949 263.9214 15.06406463256873
Epoch: Oct 29, 2025 • Age: 19 hours

現在のステータス

高度 549.5 km
速度 7.59 km/s
衛星直下点 37.16°N, 102.24°W
打ち上げ日 Mar 11, 2021
運用期間 4.6 years
タイプ internet

技術仕様

分類 Payload
質量 260.00 kg
乾燥質量 248.00 kg
総質量 260.00 kg
長さ 0.20 m
直径 2.80 m
スパン 9.00 m
形状 Box + pan
製造者 SPXS
バスタイプ Starlink
フェーズステータス In Orbit
所有者/国 SPXS/US

大規模コンステレーション

Loading constellations...